DW8024 Weather Reports


Display with metric or nautical units.
time (UTC)temp
F
wind
direction
speed
MPH
gust
MPH
rain 1hr
in
rain 24hr
in
rain mn
in
humidity
%
barometer
mb
20180221092454 42 328 2.0 4.0 0.00 0.00 0.00 92 1028.5
20180221091954 42 348 2.0 3.0 0.00 0.00 0.00 92 1028.5
20180221091457 42 355 2.0 5.0 0.00 0.00 0.00 92 1028.5
20180221090954 42 350 3.0 5.0 0.00 0.00 0.00 93 1028.5
20180221090454 42 340 2.0 5.0 0.00 0.00 0.00 93 1028.4
20180221085957 42 330 2.0 3.0 0.00 0.00 0.00 93 1028.4
20180221085454 41 336 2.0 4.0 0.00 0.00 0.00 93 1028.4
20180221084954 41 347 2.0 4.0 0.00 0.00 0.00 93 1028.3
20180221084457 41 355 1.0 3.0 0.00 0.00 0.00 98 1028.4
20180221083954 41 0 0.0 0.0 0.00 0.00 0.00 93 1028.4
20180221083454 41 0 0.0 0.0 0.00 0.00 0.00 93 1028.3
20180221082957 41 0 0.0 0.0 0.00 0.00 0.00 93 1028.3
20180221082454 40 0 0.0 0.0 0.00 0.00 0.00 93 1028.2
20180221081954 40 0 0.0 0.0 0.00 0.00 0.00 93 1028.2
20180221081456 40 0 0.0 0.0 0.00 0.00 0.00 92 1028.2
20180221080954 40 0 0.0 0.0 0.00 0.00 0.00 92 1028.2
20180221080454 40 0 0.0 0.0 0.00 0.00 0.00 92 1028.2
20180221075957 40 0 0.0 0.0 0.00 0.00 0.00 92 1028.2
20180221075454 40 0 0.0 0.0 0.00 0.00 0.00 92 1028.1
20180221074954 39 0 0.0 0.0 0.00 0.00 0.00 92 1028.1
20180221074457 39 0 0.0 3.0 0.00 0.00 0.00 92 1028.0
20180221073954 39 0 0.0 3.0 0.00 0.00 0.00 91 1028.0
20180221073454 39 0 0.0 0.0 0.00 0.00 0.00 91 1028.0
20180221072957 39 0 0.0 0.0 0.00 0.00 0.00 91 1028.0
20180221072453 39 0 0.0 0.0 0.00 0.00 0.00 91 1028.0
20180221071954 39 0 0.0 0.0 0.00 0.00 0.00 91 1028.0
20180221071457 39 0 0.0 0.0 0.00 0.00 0.00 90 1027.9
20180221070954 39 0 0.0 0.0 0.00 0.00 0.00 90 1028.0
20180221070454 39 0 0.0 0.0 0.00 0.00 0.00 90 1027.9
20180221065957 39 0 0.0 0.0 0.00 0.00 0.00 90 1027.9
20180221065454 40 0 0.0 0.0 0.00 0.00 0.00 90 1027.8
20180221064954 40 0 0.0 0.0 0.00 0.00 0.00 90 1027.8
20180221064457 40 0 0.0 0.0 0.00 0.00 0.00 90 1027.9
20180221063953 40 0 0.0 0.0 0.00 0.00 0.00 90 1027.8
20180221063454 40 0 0.0 0.0 0.00 0.00 0.00 90 1027.9
20180221062956 41 0 0.0 1.0 0.00 0.00 0.00 90 1027.9
20180221062454 41 0 0.0 1.0 0.00 0.00 0.00 90 1027.9
20180221061954 41 28 1.0 2.0 0.00 0.00 0.00 90 1027.9
20180221061456 41 24 1.0 3.0 0.00 0.00 0.00 90 1027.9
20180221060954 41 18 1.0 3.0 0.00 0.00 0.00 90 1027.9
20180221060454 42 0 0.0 2.0 0.00 0.00 0.00 90 1027.9
20180221055956 41 0 0.0 2.0 0.00 0.00 0.00 89 1027.9
20180221055454 42 0 0.0 0.0 0.00 0.00 0.00 89 1028.0
20180221054954 42 0 0.0 0.0 0.00 0.00 0.00 89 1028.0
20180221054456 42 0 0.0 0.0 0.00 0.00 0.00 88 1028.1
20180221053954 42 0 0.0 0.0 0.00 0.00 0.00 88 1028.1
20180221053453 42 0 0.0 0.0 0.00 0.00 0.00 88 1028.1
20180221052957 42 0 0.0 0.0 0.00 0.00 0.00 88 1028.1
20180221052454 42 0 0.0 2.0 0.00 0.00 0.00 88 1028.0
20180221051953 42 7 1.0 3.0 0.00 0.00 0.00 88 1028.0
20180221051457 42 8 1.0 3.0 0.00 0.00 0.00 87 1028.0
20180221050954 42 0 0.0 2.0 0.00 0.00 0.00 87 1028.0
20180221050453 42 0 0.0 0.0 0.00 0.00 0.00 87 1027.9
20180221045957 42 0 0.0 0.0 0.00 0.00 0.00 86 1027.9
20180221045453 42 0 0.0 1.0 0.00 0.00 0.00 86 1027.9
20180221044954 42 8 1.0 4.0 0.00 0.00 0.00 86 1027.9
20180221044456 42 5 2.0 4.0 0.00 0.00 0.00 86 1027.8
20180221043953 42 355 2.0 4.0 0.00 0.00 0.00 86 1027.8
20180221043454 42 348 1.0 4.0 0.00 0.00 0.00 86 1027.9
20180221042956 42 0 0.0 2.0 0.00 0.00 0.00 85 1027.8
20180221042454 42 0 0.0 0.0 0.00 0.00 0.00 85 1027.9
20180221041953 42 0 0.0 0.0 0.00 0.00 0.00 85 1027.9
20180221041457 42 0 0.0 0.0 0.00 0.00 0.00 85 1027.9
20180221040954 42 0 0.0 0.0 0.00 0.00 0.00 85 1027.9
20180221040453 42 0 0.0 0.0 0.00 0.00 0.00 84 1027.9
20180221035957 42 0 0.0 2.0 0.00 0.00 0.00 84 1027.9
20180221035453 42 12 1.0 3.0 0.00 0.00 0.00 84 1028.0
20180221034954 43 12 2.0 3.0 0.00 0.00 0.00 84 1028.0
20180221034456 43 23 2.0 3.0 0.00 0.00 0.00 84 1028.0
20180221033953 43 25 2.0 4.0 0.00 0.00 0.00 84 1028.0
20180221033454 43 20 1.0 4.0 0.00 0.00 0.00 84 1028.0
20180221032956 43 20 2.0 4.0 0.00 0.00 0.00 84 1028.0
20180221032453 43 21 2.0 6.0 0.00 0.00 0.00 84 1028.0
20180221031954 43 28 4.0 10.0 0.00 0.00 0.00 83 1028.0
20180221031456 43 29 5.0 10.0 0.00 0.00 0.00 83 1027.9
20180221030954 43 31 4.0 9.0 0.00 0.01 0.00 83 1027.9
20180221030454 43 38 3.0 8.0 0.00 0.01 0.00 83 1027.9
20180221025957 43 37 3.0 9.0 0.00 0.01 0.00 83 1028.0
20180221025453 43 29 4.0 9.0 0.00 0.01 0.00 84 1028.0
20180221024954 43 28 4.0 9.0 0.00 0.01 0.00 84 1027.9
20180221024457 43 31 3.0 8.0 0.00 0.01 0.00 84 1028.0
20180221023953 43 25 3.0 8.0 0.00 0.01 0.00 84 1028.0
20180221023454 43 22 4.0 8.0 0.00 0.01 0.00 84 1028.0
20180221022957 43 25 5.0 11.0 0.00 0.01 0.00 83 1028.0
20180221022453 43 25 5.0 11.0 0.00 0.01 0.00 84 1028.0
20180221021954 43 22 5.0 12.0 0.00 0.01 0.00 84 1028.0
20180221021456 43 29 4.0 12.0 0.00 0.01 0.00 84 1028.0
20180221020953 43 35 4.0 8.0 0.00 0.01 0.00 84 1028.0
20180221020454 43 25 4.0 8.0 0.00 0.01 0.00 84 1028.0
20180221015956 43 20 4.0 11.0 0.00 0.01 0.00 83 1027.9
20180221015453 44 23 4.0 11.0 0.00 0.01 0.00 83 1027.7
20180221014953 44 19 3.0 9.0 0.00 0.01 0.00 83 1027.8
20180221014457 44 17 3.0 8.0 0.00 0.01 0.00 83 1027.9
20180221013953 44 22 4.0 8.0 0.00 0.01 0.00 83 1027.7
20180221013454 44 23 4.0 8.0 0.00 0.01 0.00 83 1027.6
20180221012956 44 22 3.0 7.0 0.00 0.01 0.00 83 1027.7
20180221012454 44 11 3.0 9.0 0.00 0.01 0.00 83 1027.8
20180221011953 44 6 3.0 9.0 0.00 0.01 0.00 83 1027.7
20180221011456 44 7 3.0 8.0 0.00 0.01 0.00 83 1027.6
20180221010953 44 7 3.0 8.0 0.00 0.01 0.00 83 1027.6
20180221010454 44 9 4.0 10.0 0.00 0.01 0.00 83 1027.7
20180221005956 44 7 5.0 10.0 0.00 0.01 0.00 83 1027.7
20180221005453 44 9 4.0 10.0 0.00 0.01 0.00 83 1027.7
20180221004953 44 13 3.0 6.0 0.00 0.01 0.00 83 1027.7
20180221004456 44 14 3.0 7.0 0.00 0.01 0.00 83 1027.6
20180221003954 44 15 2.0 7.0 0.00 0.01 0.00 83 1027.6
20180221003453 44 16 2.0 6.0 0.00 0.01 0.00 83 1027.6
20180221002956 44 30 3.0 8.0 0.00 0.01 0.00 83 1027.6
20180221002454 44 29 3.0 9.0 0.00 0.01 0.00 82 1027.6
20180221001953 44 16 3.0 9.0 0.00 0.01 0.00 82 1027.5
20180221001456 44 28 4.0 10.0 0.00 0.01 0.00 82 1027.5
20180221000953 44 33 5.0 11.0 0.00 0.01 0.00 82 1027.5
20180221000453 44 26 5.0 11.0 0.00 0.01 0.00 82 1027.6
20180221000000 44 23 5.0 10.0 0.00 0.01 0.00 82 1027.4
20180220235453 44 18 6.0 11.0 0.00 0.01 0.01 82 1027.3
20180220234954 44 8 6.0 15.0 0.00 0.01 0.01 82 1027.3
20180220234456 44 5 6.0 15.0 0.00 0.01 0.01 82 1027.4
20180220233953 44 3 5.0 11.0 0.00 0.01 0.01 82 1027.3
20180220233454 44 7 7.0 15.0 0.00 0.01 0.01 82 1027.2
20180220232956 44 13 6.0 15.0 0.00 0.01 0.01 82 1027.1
20180220232453 44 12 4.0 13.0 0.00 0.01 0.01 82 1027.1
20180220231953 44 2 5.0 14.0 0.00 0.01 0.01 82 1027.2
20180220231456 44 355 6.0 15.0 0.00 0.01 0.01 82 1027.2
20180220230953 44 355 8.0 16.0 0.00 0.01 0.01 82 1027.0
20180220230453 44 2 7.0 16.0 0.00 0.01 0.01 82 1027.0
20180220225956 44 14 7.0 15.0 0.00 0.01 0.01 81 1027.0
20180220225453 44 7 7.0 15.0 0.00 0.01 0.01 82 1027.0
20180220224953 44 356 7.0 15.0 0.00 0.01 0.01 82 1027.1
20180220224455 44 2 6.0 12.0 0.00 0.01 0.01 83 1027.1
20180220223953 44 2 5.0 10.0 0.00 0.01 0.01 83 1026.9
20180220223453 44 355 5.0 10.0 0.00 0.01 0.01 83 1027.0
20180220222955 44 353 5.0 10.0 0.00 0.01 0.01 83 1027.1
20180220222453 44 354 5.0 9.0 0.00 0.01 0.01 83 1027.0
20180220221953 44 3 5.0 10.0 0.00 0.01 0.01 83 1026.9
20180220221455 44 8 4.0 10.0 0.00 0.01 0.01 83 1026.9
20180220220953 44 9 4.0 12.0 0.00 0.01 0.01 83 1027.0
20180220220452 44 14 5.0 12.0 0.00 0.01 0.01 83 1027.0
20180220215956 45 14 6.0 12.0 0.00 0.01 0.01 82 1027.0
20180220215453 45 11 5.0 11.0 0.00 0.01 0.01 82 1026.8
20180220214953 45 26 7.0 15.0 0.00 0.01 0.01 81 1026.8
20180220214455 45 39 9.0 16.0 0.00 0.01 0.01 80 1026.8
20180220213953 45 40 10.0 16.0 0.00 0.01 0.01 79 1026.9
20180220213453 45 34 7.0 16.0 0.00 0.01 0.01 78 1026.8
20180220212955 45 10 4.0 10.0 0.00 0.01 0.01 77 1026.6
20180220212453 46 357 4.0 9.0 0.00 0.01 0.01 77 1026.6
20180220211953 46 358 5.0 11.0 0.00 0.01 0.01 77 1026.6
20180220211455 46 5 6.0 12.0 0.00 0.01 0.01 76 1026.4
20180220210953 46 5 7.0 14.0 0.00 0.01 0.01 76 1026.4
20180220210453 46 10 7.0 14.0 0.00 0.01 0.01 75 1026.4
20180220205956 46 19 7.0 14.0 0.00 0.01 0.01 75 1026.5
20180220205453 46 13 7.0 15.0 0.00 0.01 0.01 75 1026.5
20180220204953 46 13 8.0 16.0 0.00 0.01 0.01 74 1026.5
20180220204456 46 11 8.0 16.0 0.00 0.01 0.01 74 1026.3
20180220203952 46 4 7.0 14.0 0.00 0.01 0.01 74 1026.3
20180220203453 46 358 8.0 18.0 0.00 0.01 0.01 74 1026.1
20180220202956 46 355 9.0 18.0 0.00 0.01 0.01 73 1026.2
20180220202453 46 353 7.0 15.0 0.00 0.01 0.01 73 1026.3
20180220201953 46 349 6.0 14.0 0.00 0.01 0.01 73 1026.3
20180220201456 46 352 5.0 10.0 0.00 0.01 0.01 73 1026.2
20180220200952 47 352 5.0 11.0 0.00 0.01 0.01 72 1026.3
20180220200453 47 359 6.0 12.0 0.00 0.01 0.01 72 1026.4
20180220195955 47 4 5.0 13.0 0.00 0.01 0.01 72 1026.4
20180220195453 47 356 6.0 13.0 0.00 0.01 0.01 72 1026.3
20180220194953 47 357 6.0 13.0 0.00 0.01 0.01 71 1026.2
20180220194455 47 357 7.0 13.0 0.00 0.01 0.01 71 1026.1
20180220193953 47 351 7.0 12.0 0.00 0.01 0.01 71 1026.0
20180220193452 47 347 6.0 12.0 0.00 0.01 0.01 71 1026.0
20180220192955 47 343 5.0 11.0 0.00 0.01 0.01 71 1026.0
20180220192453 47 342 6.0 14.0 0.00 0.01 0.01 71 1025.9
20180220191952 47 343 7.0 14.0 0.00 0.01 0.01 71 1025.8
20180220191456 47 346 7.0 14.0 0.00 0.01 0.01 71 1025.8
20180220190953 47 350 7.0 14.0 0.00 0.01 0.01 71 1025.7
20180220190453 47 353 6.0 13.0 0.00 0.01 0.01 70 1025.6
20180220185955 47 348 6.0 13.0 0.00 0.01 0.01 71 1025.6
20180220185452 47 348 7.0 13.0 0.00 0.01 0.01 70 1025.8
20180220184953 47 351 7.0 13.0 0.00 0.01 0.01 70 1025.7
20180220184455 47 351 7.0 13.0 0.00 0.01 0.01 70 1025.7
20180220183953 47 355 6.0 13.0 0.00 0.01 0.01 70 1025.6
20180220183453 47 2 6.0 13.0 0.00 0.01 0.01 70 1025.5
20180220182955 47 356 6.0 12.0 0.00 0.01 0.01 71 1025.4
20180220182453 48 348 7.0 16.0 0.00 0.01 0.01 72 1025.5
20180220181952 48 346 7.0 16.0 0.00 0.01 0.01 72 1025.5
20180220181455 48 344 7.0 13.0 0.00 0.01 0.01 71 1025.4
20180220180953 48 344 7.0 16.0 0.00 0.01 0.01 71 1025.3
20180220180452 48 344 8.0 16.0 0.00 0.01 0.01 70 1025.3
20180220175956 48 343 7.0 14.0 0.00 0.01 0.01 70 1025.2
20180220175452 48 340 6.0 14.0 0.00 0.01 0.01 71 1025.1
20180220174952 48 343 7.0 17.0 0.00 0.01 0.01 71 1025.0
20180220174455 48 341 8.0 18.0 0.00 0.01 0.01 70 1024.9
20180220173952 48 337 8.0 18.0 0.00 0.01 0.01 70 1024.8
20180220173453 48 338 7.0 15.0 0.00 0.01 0.01 74 1024.9
20180220172955 48 337 5.0 14.0 0.00 0.01 0.01 71 1024.7
20180220172452 48 337 4.0 10.0 0.00 0.01 0.01 71 1024.7
20180220171953 49 329 6.0 12.0 0.00 0.01 0.01 71 1024.7
20180220171455 49 321 8.0 15.0 0.00 0.01 0.01 69 1024.6
20180220170952 49 321 7.0 15.0 0.00 0.01 0.01 69 1024.6
20180220170453 49 331 6.0 13.0 0.00 0.01 0.01 69 1024.6
20180220165955 49 336 7.0 15.0 0.00 0.01 0.01 69 1024.6
20180220165452 49 339 9.0 16.0 0.00 0.01 0.01 68 1024.6
20180220164952 49 340 9.0 16.0 0.00 0.01 0.01 68 1024.6
20180220164455 49 339 8.0 15.0 0.00 0.01 0.01 68 1024.5
20180220163953 49 339 8.0 17.0 0.00 0.01 0.01 68 1024.3
20180220163452 49 340 7.0 17.0 0.00 0.01 0.01 69 1024.2
20180220162956 49 342 9.0 18.0 0.00 0.01 0.01 68 1024.2
20180220162452 49 340 10.0 19.0 0.00 0.01 0.01 68 1024.1
20180220161952 49 332 11.0 19.0 0.00 0.01 0.01 67 1024.1
20180220161455 49 332 10.0 18.0 0.00 0.01 0.01 67 1024.0
20180220160952 50 341 7.0 17.0 0.00 0.01 0.01 68 1024.0
20180220160453 49 348 7.0 16.0 0.00 0.01 0.01 70 1024.0
20180220155955 49 344 7.0 16.0 0.00 0.01 0.01 69 1024.0
20180220155452 49 342 6.0 13.0 0.00 0.01 0.01 70 1024.0
20180220154952 49 341 7.0 15.0 0.00 0.01 0.01 69 1024.0
20180220154455 49 332 9.0 16.0 0.00 0.01 0.01 69 1024.0
20180220153952 49 331 10.0 18.0 0.00 0.01 0.01 67 1023.9
20180220153452 49 329 10.0 18.0 0.00 0.01 0.01 67 1023.9
20180220152955 50 326 9.0 19.0 0.00 0.01 0.01 66 1023.9
20180220152452 50 335 8.0 19.0 0.00 0.01 0.01 66 1023.9
20180220151952 51 346 9.0 21.0 0.00 0.01 0.01 65 1023.8
20180220151454 51 344 11.0 21.0 0.00 0.01 0.01 65 1023.9
20180220150952 50 333 10.0 18.0 0.00 0.01 0.01 67 1023.8
20180220150452 50 330 9.0 18.0 0.00 0.01 0.01 68 1023.6
20180220145955 49 330 10.0 21.0 0.00 0.01 0.01 66 1023.7
20180220145452 50 331 11.0 21.0 0.00 0.01 0.01 66 1023.7
20180220144952 50 336 12.0 24.0 0.00 0.01 0.01 66 1023.7
20180220144455 51 338 12.0 24.0 0.00 0.01 0.01 64 1023.6
20180220143952 51 339 11.0 23.0 0.00 0.01 0.01 66 1023.7
20180220143452 51 345 11.0 22.0 0.00 0.01 0.01 66 1023.7
20180220142955 50 350 10.0 19.0 0.00 0.01 0.01 67 1023.7
20180220142452 50 342 10.0 19.0 0.00 0.01 0.01 67 1023.6
20180220141952 49 334 12.0 19.0 0.00 0.01 0.01 68 1023.6
20180220141455 49 340 11.0 19.0 0.00 0.01 0.01 69 1023.6
20180220140952 49 354 10.0 22.0 0.00 0.01 0.01 68 1023.5
20180220140452 49 346 11.0 22.0 0.00 0.01 0.01 68 1023.6
20180220135955 49 336 11.0 19.0 0.00 0.01 0.01 68 1023.4
20180220135452 50 341 12.0 23.0 0.00 0.01 0.01 67 1023.3
20180220134952 50 339 12.0 23.0 0.00 0.01 0.01 69 1023.4
20180220134455 49 335 10.0 19.0 0.00 0.01 0.01 67 1023.3
20180220133952 50 336 9.0 17.0 0.00 0.01 0.01 68 1023.3
20180220133452 50 337 10.0 23.0 0.00 0.01 0.01 68 1023.2
20180220132955 50 334 11.0 23.0 0.00 0.01 0.01 69 1023.4
20180220132452 49 333 10.0 21.0 0.00 0.01 0.01 70 1023.4
20180220131952 49 341 8.0 19.0 0.00 0.01 0.01 71 1023.4
20180220131455 49 340 9.0 19.0 0.00 0.01 0.01 70 1023.3
20180220130952 49 341 10.0 18.0 0.00 0.01 0.01 70 1023.2
20180220130452 49 345 9.0 16.0 0.00 0.01 0.01 70 1023.3
20180220125955 49 337 9.0 16.0 0.00 0.01 0.01 70 1023.3
20180220125452 50 323 9.0 15.0 0.00 0.01 0.01 71 1023.1
20180220124952 50 321 10.0 19.0 0.00 0.01 0.01 71 1023.2
20180220124455 50 322 10.0 19.0 0.00 0.01 0.01 72 1023.1
20180220123951 50 316 11.0 16.0 0.00 0.01 0.01 73 1023.0
20180220123452 50 311 11.0 18.0 0.00 0.01 0.01 73 1022.9
20180220122955 49 320 10.0 18.0 0.00 0.01 0.01 73 1023.0
20180220122452 50 325 10.0 19.0 0.00 0.01 0.01 75 1023.1
20180220121952 49 322 10.0 19.0 0.00 0.01 0.01 72 1023.0
20180220121454 50 317 9.0 16.0 0.00 0.01 0.01 74 1023.0
20180220120952 49 317 11.0 21.0 0.00 0.01 0.01 76 1023.0
20180220120452 49 317 11.0 21.0 0.00 0.01 0.01 75 1023.1
20180220115955 48 317 11.0 18.0 0.00 0.01 0.01 75 1023.1
20180220115452 48 318 10.0 17.0 0.00 0.01 0.01 77 1023.2
20180220114951 48 326 9.0 16.0 0.00 0.01 0.01 77 1023.2
20180220114455 47 326 10.0 19.0 0.00 0.01 0.01 78 1023.2
20180220113952 48 322 11.0 19.0 0.00 0.01 0.01 78 1023.2
20180220113452 47 318 10.0 18.0 0.00 0.01 0.01 78 1023.3
20180220112955 47 313 11.0 19.0 0.00 0.01 0.01 78 1023.2
20180220112452 47 311 12.0 19.0 0.00 0.01 0.01 79 1023.1
20180220111952 47 318 11.0 18.0 0.00 0.01 0.01 80 1023.0
20180220111455 47 323 10.0 18.0 0.00 0.01 0.01 81 1023.1
20180220110951 47 318 10.0 18.0 0.00 0.01 0.01 82 1023.0
20180220110452 46 318 10.0 17.0 0.00 0.01 0.01 82 1023.1
20180220105954 46 318 9.0 18.0 0.00 0.01 0.01 83 1023.1
20180220105452 46 317 10.0 18.0 0.00 0.01 0.01 83 1023.0
20180220104951 46 320 9.0 18.0 0.00 0.01 0.01 83 1023.1
20180220104454 46 321 9.0 19.0 0.00 0.01 0.01 84 1023.0
20180220103952 46 324 10.0 21.0 0.00 0.01 0.01 85 1022.9
20180220103451 46 323 10.0 21.0 0.00 0.01 0.01 85 1023.1
20180220102954 45 321 9.0 17.0 0.00 0.01 0.01 87 1022.9
20180220102451 45 315 9.0 15.0 0.00 0.01 0.01 88 1022.9
20180220101952 45 309 9.0 15.0 0.00 0.01 0.01 89 1023.0
20180220101454 45 308 7.0 12.0 0.00 0.01 0.01 90 1022.9
20180220100952 45 309 7.0 13.0 0.00 0.01 0.01 91 1022.9
20180220100451 44 306 8.0 13.0 0.00 0.01 0.01 92 1023.0
20180220095955 44 303 7.0 12.0 0.00 0.01 0.01 92 1022.9
20180220095451 44 306 7.0 11.0 0.00 0.01 0.01 92 1023.0
20180220094952 44 308 6.0 10.0 0.00 0.01 0.01 93 1023.0
20180220094454 44 311 4.0 9.0 0.00 0.01 0.01 93 1023.1
20180220093951 44 319 3.0 5.0 0.00 0.01 0.01 93 1023.1
20180220093452 43 319 4.0 9.0 0.00 0.01 0.01 93 1023.1
20180220092954 43 307 4.0 9.0 0.00 0.01 0.01 93 1023.0